Location: City of Britt
(43.0975°N, 93.8032°W)
Time: 11:23:23
(UTC+00:00)

BlueWalker 3 - Pass Details

Date: 12 October 2024
Orbit: 470 x 482 km, 53.2° (Epoch: 05 November)

Event Time Altitude Azimuth Distance (km) Brightness Sun altitude
Exits shadow 09:42:49 15° 34° (NE) 1,353 4.7 -30.2°
Drops below altitude 10° 09:43:38 10° 41° (NE) 1,634 5.2 -30.1°
Sets 09:45:56 0° 51° (NE) 2,514 6.5 -29.7°
